Faribault, MN

2:38 PM CST on November 22, 2017 (GMT -0600)
Faribault Municipal

Weather History for KFBL - October, 2012

Change the Weather History Date:

Friday, October 12, 2012

  Actual Average Record
Temperature  
Mean Temperature 34 °F -  
Max Temperature 51 °F 62 °F 87 °F (1975)
Min Temperature 17 °F 37 °F 17 °F (2012)
Degree Days  
Heating Degree Days 31    
Moisture  
Dew Point 20 °F    
Average Humidity 59    
Maximum Humidity 100    
Minimum Humidity 26    
Precipitation  
Precipitation 0.00 in - - ()
Sea Level Pressure  
Sea Level Pressure 30.32 in    
Wind  
Wind Speed 4 mph (SE)    
Max Wind Speed 17 mph    
Max Gust Speed 26 mph    
Visibility 10 miles    
Events      
Averages and records for this station are not official NWS values.
T = Trace of Precipitation, MM = Missing Value Source: NWS Daily Summary

Daily Weather History Graph

Daily Weather History Graph

Search for Another Location

Airport or City:

Trip Planner

Search our weather history database for the weather conditions in past years. The results will help you decide how hot, cold, wet, or windy it might be!

Date:

Astronomy

Oct. 12, 2012 Rise Set
Actual Time 7:25 AM CDT 6:33 PM CDT
Civil Twilight 6:55 AM CDT 7:02 PM CDT
Nautical Twilight 6:22 AM CDT 7:36 PM CDT
Astronomical Twilight 5:48 AM CDT 8:09 PM CDT
Moon 4:02 AM CDT (10/12) 4:48 PM CDT (10/12)
Length of Visible Light 12h 06m
Length of Day
11h 08m
Waning Crescent, 10% of the Moon is Illuminated
Oct 12
Waning Crescent
Oct 15
New
Oct 21
First Quarter
Oct 29
Full
Nov 6
Last Quarter

Hourly Weather History & Observations

Time (CDT) Temp. Windchill Dew Point Humidity Pressure Visibility Wind Dir Wind Speed Gust Speed Precip Events Conditions
12:14 AM 30.2 °F - 19.4 °F 64% 30.39 in 10.0 mi Calm Calm - N/A   Clear
12:34 AM 24.8 °F - 19.4 °F 80% 30.40 in 10.0 mi Calm Calm - N/A   Clear
1:14 AM 24.8 °F - 19.4 °F 80% 30.40 in 10.0 mi Calm Calm - N/A   Clear
1:34 AM 24.8 °F - 19.4 °F 80% 30.40 in 10.0 mi Calm Calm - N/A   Clear
1:55 AM 21.2 °F - 17.6 °F 86% 30.41 in 10.0 mi Calm Calm - N/A   Clear
2:14 AM 21.2 °F - 17.6 °F 86% 30.42 in 10.0 mi Calm Calm - N/A   Clear
2:34 AM 21.2 °F - 17.6 °F 86% 30.42 in 10.0 mi Calm Calm - N/A   Clear
2:54 AM 21.2 °F - 17.6 °F 86% 30.42 in 10.0 mi Calm Calm - N/A   Clear
3:14 AM 19.4 °F - 17.6 °F 93% 30.41 in 10.0 mi Calm Calm - N/A   Clear
3:34 AM 21.2 °F - 19.4 °F 93% 30.41 in 10.0 mi Calm Calm - N/A   Clear
3:54 AM 21.2 °F - 17.6 °F 86% 30.41 in 10.0 mi Calm Calm - N/A   Clear
4:14 AM 19.4 °F - 17.6 °F 93% 30.42 in 10.0 mi Calm Calm - N/A   Clear
4:34 AM 19.4 °F - 17.6 °F 93% 30.42 in 10.0 mi Calm Calm - N/A   Clear
4:55 AM 17.6 °F - 15.8 °F 93% 30.42 in 10.0 mi Calm Calm - N/A   Clear
5:14 AM 17.6 °F - 17.6 °F 100% 30.42 in 10.0 mi Calm Calm - N/A   Clear
5:54 AM 17.6 °F - 17.6 °F 100% 30.42 in 10.0 mi Calm Calm - N/A   Clear
6:14 AM 19.4 °F - 19.4 °F 100% 30.42 in 10.0 mi Calm Calm - N/A   Clear
6:34 AM 19.4 °F - 17.6 °F 93% 30.42 in 10.0 mi Calm Calm - N/A   Clear
6:54 AM 17.6 °F - 17.6 °F 100% 30.43 in 10.0 mi Calm Calm - N/A   Clear
7:14 AM 17.6 °F - 17.6 °F 100% 30.42 in 10.0 mi Calm Calm - N/A   Clear
7:34 AM 19.4 °F - 17.6 °F 93% 30.42 in 10.0 mi Calm Calm - N/A   Clear
7:54 AM 17.6 °F - 17.6 °F 100% 30.42 in 10.0 mi Calm Calm - N/A   Clear
8:14 AM 23.0 °F - 21.2 °F 93% 30.43 in 10.0 mi Calm Calm - N/A   Clear
8:34 AM 24.8 °F - 21.2 °F 86% 30.43 in 10.0 mi Calm Calm - N/A   Clear
8:54 AM 28.4 °F - 24.8 °F 86% 30.43 in 10.0 mi Calm Calm - N/A   Clear
9:14 AM 30.2 °F - 24.8 °F 80% 30.43 in 10.0 mi Calm Calm - N/A   Clear
9:35 AM 35.6 °F 30.7 °F 24.8 °F 65% 30.42 in 10.0 mi East 5.8 mph - N/A   Clear
9:54 AM 37.4 °F 31.4 °F 24.8 °F 60% 30.42 in 10.0 mi SE 8.1 mph - N/A   Clear
10:14 AM 39.2 °F 33.6 °F 24.8 °F 56% 30.41 in 10.0 mi SE 8.1 mph - N/A   Clear
10:34 AM 42.8 °F 37.0 °F 24.8 °F 49% 30.41 in 10.0 mi SE 10.4 mph - N/A   Clear
11:14 AM 44.6 °F 40.2 °F 23.0 °F 43% 30.40 in 10.0 mi ESE 8.1 mph - N/A   Clear
11:35 AM 44.6 °F 39.7 °F 23.0 °F 43% 30.39 in 10.0 mi SE 9.2 mph - N/A   Clear
12:14 PM 46.4 °F 42.9 °F 21.2 °F 37% 30.38 in 10.0 mi SE 6.9 mph - N/A   Clear
12:34 PM 46.4 °F 40.7 °F 21.2 °F 37% 30.37 in 10.0 mi SSE 12.7 mph 17.3 mph N/A   Clear
12:54 PM 48.2 °F - 19.4 °F 32% 30.36 in 10.0 mi SE 6.9 mph - N/A   Clear
1:34 PM 50.0 °F - 17.6 °F 28% 30.33 in 10.0 mi South 15.0 mph 19.6 mph N/A   Clear
1:55 PM 51.8 °F - 17.6 °F 26% 30.32 in 10.0 mi SSE 12.7 mph 17.3 mph N/A   Clear
2:14 PM 51.8 °F - 19.4 °F 28% 30.31 in 10.0 mi SE 13.8 mph - N/A   Clear
2:34 PM 51.8 °F - 19.4 °F 28% 30.30 in 10.0 mi South 11.5 mph 18.4 mph N/A   Clear
2:54 PM 51.8 °F - 19.4 °F 28% 30.29 in 10.0 mi South 13.8 mph 18.4 mph N/A   Clear
3:14 PM 51.8 °F - 21.2 °F 30% 30.29 in 10.0 mi South 17.3 mph 21.9 mph N/A   Clear
3:34 PM 51.8 °F - 21.2 °F 30% 30.28 in 10.0 mi SSE 16.1 mph - N/A   Clear
3:54 PM 51.8 °F - 21.2 °F 30% 30.27 in 10.0 mi SSE 13.8 mph 19.6 mph N/A   Clear
4:14 PM 51.8 °F - 21.2 °F 30% 30.26 in 10.0 mi SSE 15.0 mph - N/A   Clear
4:34 PM 51.8 °F - 21.2 °F 30% 30.25 in 10.0 mi South 11.5 mph 17.3 mph N/A   Clear
5:14 PM 51.8 °F - 19.4 °F 28% 30.22 in 10.0 mi SSE 16.1 mph 20.7 mph N/A   Clear
5:54 PM 50.0 °F - 21.2 °F 32% 30.20 in 10.0 mi SE 10.4 mph - N/A   Clear
6:14 PM 50.0 °F - 21.2 °F 32% 30.18 in 10.0 mi SSE 8.1 mph - N/A   Clear
6:34 PM 48.2 °F - 19.4 °F 32% 30.18 in 10.0 mi SE 8.1 mph - N/A   Clear
6:54 PM 46.4 °F 42.4 °F 19.4 °F 34% 30.17 in 10.0 mi SE 8.1 mph - N/A   Clear
7:14 PM 46.4 °F 42.4 °F 19.4 °F 34% 30.15 in 10.0 mi SE 8.1 mph - N/A   Clear
7:34 PM 46.4 °F 41.9 °F 19.4 °F 34% 30.14 in 10.0 mi SE 9.2 mph - N/A   Clear
7:54 PM 46.4 °F 42.4 °F 19.4 °F 34% 30.13 in 10.0 mi SE 8.1 mph - N/A   Clear
8:14 PM 44.6 °F 40.2 °F 19.4 °F 37% 30.12 in 10.0 mi SE 8.1 mph - N/A   Clear
8:34 PM 46.4 °F 42.4 °F 19.4 °F 34% 30.11 in 10.0 mi SE 8.1 mph - N/A   Scattered Clouds
9:14 PM 46.4 °F 40.7 °F 21.2 °F 37% 30.11 in 10.0 mi SE 12.7 mph 17.3 mph N/A   Overcast
9:34 PM 44.6 °F 38.8 °F 24.8 °F 46% 30.10 in 10.0 mi SSE 11.5 mph 17.3 mph N/A   Overcast
9:54 PM 46.4 °F 40.4 °F 24.8 °F 43% 30.10 in 10.0 mi SSE 13.8 mph - N/A   Overcast
10:14 PM 46.4 °F 39.8 °F 23.0 °F 40% 30.09 in 10.0 mi SSE 16.1 mph 20.7 mph N/A   Overcast
10:54 PM 48.2 °F - 24.8 °F 40% - 10.0 mi SSE 12.7 mph 20.7 mph N/A   Overcast
11:34 PM 48.2 °F - 24.8 °F 40% 30.05 in 10.0 mi SSE 17.3 mph 26.5 mph N/A   Overcast
11:54 PM 48.2 °F - 26.6 °F 43% 30.04 in 10.0 mi SSE 13.8 mph 23.0 mph N/A   Overcast